OneWeb SL0007

operational
NORAD ID: 44060 Int'l Des: 2019-010 Owner: ONEWEB Country: UK Constellation: oneweb
LEOCIRCULARPOLARONEWEB_TYPE

OneWeb SL0007について

説明を読み込み中...

リアルタイム位置

3D地球を読み込み中...

次回通過

高度履歴

Altitude vs Time

uPlot chart will show altitude changes over time

軌道要素

1 44060U 19010D 25258.54391964 .00000095 00000-0 21771-3 0 9993
2 44060 87.9031 314.0338 0001587 92.5717 267.5595 13.15548956315261
Epoch: Sep 15, 2025 • Age: 15 hours

現在のステータス

高度 1213.8 km
速度 7.25 km/s
衛星直下点 77.86°N, 92.48°W
打ち上げ日 May 28, 2021
運用期間 4.3 years
タイプ internet

技術仕様

分類 Payload
質量 148.00 kg
乾燥質量 140.00 kg
総質量 148.00 kg
長さ 1.30 m
直径 1.00 m
スパン 5.00 m
形状 Trapezoid+2 pan
製造者 ADST
バスタイプ ARROW
フェーズステータス In Orbit
所有者/国 ONEWEB/UK

大規模コンステレーション

Loading constellations...